Location: Chiroubles
(46.1812°N, 4.6660°E)
Time: 01:35:15
(UTC+00:00)

CSL-04 Deb - Visible Passes

Search period start: 06 December 2021 00:00
Search period end: 16 December 2021 00:00
Orbit: 624 x 717 km, 98.3° (Epoch: 05 December)

Date Brightness Start Highest point End Pass type
(mag) Time Alt. Az. Time Alt. Az. Time Alt. Az.
06 Dec ? 06:26:27 10° ENE 06:28:12 12° E 06:29:57 10° ESE visible
09 Dec ? 06:27:37 10° ENE 06:29:34 12° E 06:31:32 10° ESE visible
12 Dec ? 06:28:48 10° ENE 06:30:55 13° E 06:33:02 10° ESE visible
15 Dec ? 06:29:59 10° ENE 06:32:15 13° E 06:34:31 10° ESE visible
